GPS BIIRM-6 (PRN 07)

Last updated on Wed Jun 24 2026 00:03:27 GMT+0000 (Coordinated Universal Time)

1 32711U 08012A 26173.12169595 .00000074 00000+0 00000+0 0 9991 2 32711 54.4981 149.7276 0211361 247.9058 109.8201 2.00572568133858
UTC large
Height (km)
Speed (km/s)
/
Latitude / Longitude
Inclination (degrees)
Orbital Period (minutes)
Azimuth
Elevation
Range (km)
Doppler Factor

Next 0 passes for location: London (51.5072 / 0.1276)

No passes found over London.
GPS BIIRM-6 (PRN 07)